Wind_Speed
5 2 2 5 7 8 8 9 8 4 5 4 3 2 3 3 4 4 4 5 9 6 4 7 5 4 6 5 7 12 14 12 13 14 14 16 17 18 19 19 19 18 17 14 14 15 14 13 13 13 12 11 11 9 6 4 4 5 6 6 6 7 8 8 7 6 3 2 3 3 5 7 9 11 12 15 17 16 14 13 11 11 11 10 10 9
4 2 7 10 9 9 9 9 6 3 4 4 3 0 2 3 5 5 3 6 8 5 2 5 5 4 5 5 6 10 10 11 15 15 16 19 19 19 20 21 21 19 18 16 16 17 16 16 15 14 14 12 12 10 8 6 5 7 7 7 7 6 7 7 7 6 4 3 3 2 5 7 8 10 12 14 16 16 16 15 14 14 14 14 14 12
2 4 13 10 4 5 6 6 6 3 4 3 3 0 3 2 3 4 1 4 6 2 1 5 6 3 3 4 6 9 11 13 19 19 18 19 18 20 22 22 22 21 20 20 18 18 18 17 17 16 15 13 12 10 8 8 7 8 8 8 7 6 7 7 6 6 4 3 2 1 4 6 8 10 12 13 15 15 14 14 15 15 16 16 16 16
2 7 11 5 6 6 5 5 6 4 2 3 3 1 4 3 0 2 3 4 5 2 2 6 4 2 2 3 4 10 15 13 17 20 19 19 20 22 24 24 24 23 23 22 21 20 19 19 19 18 16 15 14 12 11 10 9 9 9 9 8 7 7 6 6 5 4 3 1 2 6 7 9 11 12 12 13 14 14 14 15 16 16 16 17 17
8 10 3 4 7 8 4 4 5 5 3 3 4 4 3 1 1 2 1 4 3 2 2 6 3 4 2 4 4 8 11 11 13 16 18 20 22 22 22 23 25 25 24 24 23 22 22 22 22 20 18 16 15 14 12 11 10 10 9 9 8 6 6 6 6 5 4 4 3 5 9 9 10 11 11 11 12 13 13 13 14 15 16 15 15 15
11 11 3 3 4 6 6 5 6 7 3 2 4 7 6 4 6 5 5 5 3 3 2 5 3 5 3 4 6 4 5 9 10 12 16 21 22 21 22 24 25 25 25 25 24 24 23 23 23 22 20 18 16 14 13 11 11 11 10 9 8 6 7 7 6 4 4 5 3 5 9 10 11 11 10 10 11 12 12 12 13 13 14 14 13 13
6 6 4 6 5 6 6 4 5 8 4 2 5 8 8 8 9 7 5 4 3 2 4 3 4 3 4 4 8 6 6 9 8 8 14 20 22 22 25 26 25 26 26 26 26 25 25 25 25 24 22 19 16 14 13 12 12 12 10 9 8 7 7 8 6 4 4 5 4 5 8 9 9 10 10 9 10 11 11 11 11 11 11 11 11 11
4 2 1 4 4 5 5 4 6 9 7 2 6 8 8 7 9 8 5 4 2 2 3 3 4 1 3 5 6 6 8 8 7 8 12 17 22 24 26 27 26 26 26 26 27 27 26 26 25 24 23 20 16 15 14 13 13 13 11 9 8 8 8 8 7 5 4 5 5 6 7 7 8 8 8 8 9 10 10 10 10 10 10 10 9 9
3 2 3 4 2 3 5 5 8 12 6 4 3 7 6 5 5 6 5 3 1 2 3 4 2 2 4 5 3 3 8 8 10 11 11 16 23 25 26 27 27 26 25 26 27 27 27 26 25 24 22 19 17 16 15 14 14 13 11 10 10 9 9 9 8 7 6 6 6 7 7 7 8 9 8 8 9 10 9 9 8 8 8 8 8 8
3 5 6 6 4 5 5 4 9 12 5 3 7 9 6 6 5 5 5 3 3 3 3 5 3 3 4 5 2 3 5 8 10 10 10 15 22 26 27 27 26 25 25 26 27 27 26 26 24 23 22 20 18 17 15 15 15 14 13 12 11 11 11 10 9 9 9 8 8 8 8 7 8 9 10 10 10 10 9 8 8 7 7 7 7 6
5 3 3 3 4 4 3 2 4 8 7 7 8 7 7 6 5 4 3 3 4 2 5 6 5 4 1 5 2 3 5 8 9 7 7 11 18 25 27 27 27 27 27 27 28 28 27 26 25 24 23 21 19 18 17 17 16 15 15 14 13 12 12 12 11 10 11 11 10 9 9 8 8 9 10 12 11 10 9 9 8 7 7 6 5 4
6 1 2 3 4 6 6 5 4 5 7 7 5 5 5 4 4 4 4 3 3 3 6 4 2 5 1 5 4 5 6 5 8 8 9 10 16 24 26 27 28 28 28 28 29 29 28 27 26 25 24 23 21 20 19 19 18 17 16 15 14 13 13 13 13 12 13 12 11 10 10 9 9 9 10 11 11 10 10 9 8 7 6 6 5 3
5 3 2 2 3 7 6 6 5 4 4 5 5 5 5 2 3 2 3 1 1 4 3 1 3 3 4 7 7 7 8 7 8 12 13 14 18 23 25 27 28 28 29 29 29 30 29 28 27 26 25 24 23 22 21 21 20 18 18 17 16 15 14 15 14 13 13 13 12 11 11 11 9 9 10 11 11 12 11 9 8 7 6 5 4 3
4 5 4 3 1 4 6 6 3 0 1 4 5 5 4 2 3 1 3 1 2 2 2 2 2 1 4 5 5 8 9 10 14 17 20 22 23 25 26 27 27 27 29 30 30 31 30 30 28 26 25 25 24 23 22 22 21 20 19 19 17 16 16 16 15 14 14 14 13 12 12 11 10 9 10 11 12 12 11 9 8 7 6 5 4 4
1 5 2 2 2 3 5 4 5 5 4 3 3 5 4 4 3 2 3 2 2 2 2 3 2 2 1 2 4 7 8 9 14 17 19 22 23 23 22 23 25 27 29 30 31 31 31 30 29 27 26 25 25 23 23 23 23 22 21 20 19 18 18 17 17 16 15 15 15 14 13 13 11 10 10 12 12 12 10 9 8 7 6 5 4 5
1 4 7 4 2 6 5 3 4 7 4 0 2 5 2 4 5 2 2 4 3 1 1 2 2 3 4 4 5 4 4 2 7 11 12 15 16 16 18 22 25 28 30 31 32 31 31 31 30 29 27 26 25 25 25 25 25 24 23 22 21 19 19 19 18 17 16 17 18 17 16 14 13 12 12 12 13 12 10 9 9 8 7 6 5 6
2 4 7 3 1 4 5 4 3 4 3 1 2 3 4 4 7 4 1 0 3 3 1 1 2 5 2 2 5 6 6 5 4 6 7 11 14 16 20 24 26 29 30 31 32 31 31 31 31 30 28 27 26 26 26 26 26 25 23 23 22 21 20 20 19 19 18 19 19 19 18 17 16 15 14 14 13 12 11 11 10 9 8 7 6 6
3 3 7 1 1 2 4 7 5 4 5 4 2 5 3 2 5 4 2 3 4 2 2 2 1 4 2 1 5 6 5 4 3 4 4 7 13 17 21 24 27 29 30 30 30 30 31 31 31 31 29 28 26 25 25 25 25 25 24 24 23 22 22 21 20 20 20 20 20 20 19 18 17 17 16 15 14 14 13 12 12 10 9 8 6 6
3 1 7 3 1 2 4 8 4 5 3 4 5 4 3 2 1 1 2 0 1 1 3 4 2 2 1 1 4 2 2 3 3 4 4 6 12 17 21 23 25 26 27 29 30 30 31 30 30 30 30 29 27 25 24 24 24 25 24 24 24 23 22 21 21 21 21 21 20 20 20 20 18 18 17 17 16 16 15 14 13 11 10 9 7 6
3 2 5 4 1 2 3 4 2 4 4 3 3 3 3 2 3 2 2 2 2 2 1 2 3 1 3 4 3 4 6 6 5 6 6 8 15 20 23 23 24 26 28 29 30 30 30 30 30 29 29 29 28 26 24 24 24 25 25 25 25 24 23 22 22 22 22 22 21 20 21 21 20 19 18 18 17 17 16 15 14 12 11 11 8 6
3 2 3 5 4 2 1 1 5 7 3 2 3 2 0 2 2 2 1 2 3 3 2 1 2 3 5 4 4 6 7 5 6 7 6 11 18 22 24 25 26 28 30 30 30 30 29 28 29 29 29 29 28 27 25 24 24 24 25 26 25 24 24 23 23 23 23 23 22 21 21 22 21 20 19 19 19 18 17 16 15 14 13 12 10 7
2 2 3 2 4 1 4 4 4 7 7 5 4 4 3 3 4 3 1 1 1 3 2 4 2 5 5 2 3 6 5 5 7 6 6 12 21 23 23 25 26 28 29 30 30 30 28 28 28 28 29 30 30 29 27 25 24 24 25 26 25 25 24 24 23 23 23 23 23 22 22 22 22 21 20 20 20 20 19 17 16 16 14 14 12 10
3 4 2 2 3 5 7 5 1 4 6 6 3 3 4 3 4 5 3 3 1 2 1 4 3 4 5 2 3 5 5 6 7 8 10 13 18 22 23 23 24 26 27 28 29 29 28 28 28 28 28 29 31 30 28 26 25 25 25 26 26 26 25 24 24 23 23 24 24 23 22 22 22 22 22 22 22 21 20 19 18 17 17 16 14 13
2 4 2 2 4 5 6 4 3 3 6 6 2 1 4 3 3 5 5 3 3 1 1 4 2 4 5 4 5 7 8 8 8 6 9 14 15 17 21 23 23 24 25 26 28 29 28 28 29 28 28 28 29 30 30 28 26 26 26 25 26 26 25 25 24 24 24 24 24 24 24 23 23 24 24 24 23 23 22 21 20 19 19 18 17 16
2 1 3 2 4 5 5 5 5 4 3 3 1 1 2 4 5 3 2 3 3 3 3 5 1 5 4 4 8 12 13 12 15 17 11 10 14 15 19 22 23 23 25 26 27 28 29 29 29 28 27 27 27 29 30 29 27 26 26 26 25 25 25 25 25 25 25 25 25 25 25 25 25 25 26 26 25 24 23 22 21 21 20 20 20 19
4 2 3 5 3 2 2 1 3 2 1 2 2 4 3 5 6 3 2 4 2 3 3 4 4 5 5 8 12 13 13 12 16 23 21 14 12 13 17 19 21 22 23 25 26 27 28 29 29 29 28 27 26 27 28 29 28 27 26 27 26 24 24 25 26 26 26 26 26 26 26 26 26 27 27 27 26 25 24 23 23 22 22 22 22 21
4 3 2 6 6 6 6 5 5 2 3 0 2 5 5 2 3 4 4 2 3 3 2 3 5 1 6 11 13 12 12 11 12 18 22 22 17 10 12 15 16 18 19 20 22 24 25 26 27 27 27 26 26 25 26 27 28 27 26 27 27 26 24 24 26 26 27 26 26 27 27 27 27 27 27 28 28 27 26 25 24 24 23 23 23 23
5 4 1 4 3 3 4 4 4 3 5 2 1 4 6 5 4 5 4 2 4 6 1 5 3 4 5 9 11 12 10 8 9 15 20 22 20 11 6 10 12 15 17 19 21 23 24 26 27 27 27 26 25 25 25 25 27 27 27 27 27 27 26 25 26 26 27 27 27 28 28 28 28 28 28 28 29 29 28 27 26 26 25 25 26 26
6 2 0 3 4 4 3 3 3 5 5 3 5 4 5 6 6 6 3 2 1 5 3 3 5 5 4 7 9 10 10 8 9 14 18 22 23 16 7 1 5 9 13 16 19 21 22 24 26 27 26 25 24 24 25 25 26 27 27 27 27 27 27 26 27 27 27 28 28 28 28 28 28 29 28 29 30 31 31 30 29 29 28 28 28 28
5 2 0 3 4 7 9 8 6 6 5 5 8 7 6 8 8 7 3 2 3 5 4 7 11 6 3 5 7 8 10 10 13 20 25 27 27 24 19 14 8 3 4 8 11 14 16 19 22 24 24 23 23 24 24 25 26 26 27 27 27 27 28 28 28 28 28 29 29 28 27 28 29 30 30 30 31 32 32 32 31 31 32 31 30 30
4 2 2 2 5 6 8 9 8 6 5 6 8 8 7 7 7 6 4 3 5 6 4 8 9 5 4 6 7 9 12 15 20 25 26 27 26 27 27 24 20 15 8 3 4 8 11 14 17 19 20 21 22 23 24 25 26 26 26 26 26 26 26 27 29 29 29 30 30 29 28 28 29 30 31 32 32 32 33 33 33 34 34 34 33 32
4 3 1 4 5 2 6 9 10 8 5 6 7 9 7 6 5 5 5 5 4 3 3 5 6 2 3 5 6 10 15 19 21 22 23 24 26 27 28 27 26 23 18 12 7 2 3 6 11 13 14 16 19 22 24 25 25 26 25 25 25 25 25 26 28 29 30 30 30 31 30 30 29 30 31 33 33 33 33 33 34 35 36 36 35 34
3 5 2 4 4 2 4 7 7 7 6 3 4 4 4 3 4 5 6 7 4 3 3 3 3 0 3 4 6 10 13 16 19 21 22 22 25 28 28 27 27 26 24 20 15 10 6 1 4 9 12 14 17 20 23 24 25 26 25 24 24 25 25 26 27 28 29 29 30 32 32 32 32 32 32 33 33 34 34 34 35 36 37 37 37 36
3 5 3 2 4 1 3 6 5 5 2 3 4 1 2 3 4 5 7 7 6 4 4 3 3 3 3 3 5 10 13 16 20 23 24 23 25 27 28 28 28 27 26 25 22 18 14 10 5 2 7 11 14 18 21 23 24 26 26 25 24 25 25 26 26 26 28 28 30 31 32 33 34 33 34 34 34 34 35 36 37 37 38 38 38 38
4 5 2 1 4 2 3 7 4 4 4 2 1 4 4 4 6 8 8 8 8 7 6 6 5 4 4 4 3 9 16 21 24 26 27 27 28 28 28 29 29 28 28 28 26 24 21 17 13 10 8 6 9 13 17 20 22 24 25 26 26 26 26 27 27 27 27 28 29 30 31 33 34 34 34 34 35 36 37 38 38 38 38 38 38 39
5 5 2 2 3 3 3 5 2 5 3 0 3 3 3 2 3 5 6 6 8 6 4 4 5 5 5 4 1 8 11 17 25 27 26 26 27 28 29 28 29 29 30 29 28 27 25 22 19 16 13 12 11 10 11 13 17 21 26 28 27 26 26 26 29 30 31 30 31 31 32 32 33 33 33 34 35 36 37 38 39 39 39 38 38 38
5 4 3 2 1 3 4 3 2 2 2 2 2 1 1 1 1 3 2 3 4 4 3 3 4 4 5 4 2 9 9 9 16 20 22 22 22 23 23 23 25 25 25 25 25 24 24 23 21 18 14 12 12 12 12 12 12 14 19 23 25 26 27 27 28 30 32 33 34 33 34 34 35 35 35 35 36 36 36 36 37 38 39 39 39 39
4 2 4 4 1 3 5 3 2 1 3 4 3 1 1 1 3 4 2 1 2 4 4 3 2 4 5 5 3 9 7 4 6 9 15 18 18 18 18 17 18 19 20 20 20 19 20 21 21 20 17 14 13 13 14 13 12 10 10 14 18 23 26 28 30 31 33 35 36 36 36 36 37 38 39 39 39 38 37 36 36 37 37 38 39 39
6 3 4 5 2 3 5 3 3 3 3 3 4 3 0 1 4 3 2 1 1 2 4 3 3 5 7 7 5 8 5 3 2 5 12 14 14 15 15 15 16 16 16 16 18 19 18 18 19 19 18 18 17 17 18 17 16 14 10 8 13 18 21 24 28 30 31 32 34 36 37 38 39 40 41 42 43 42 41 40 38 37 37 38 38 38
6 4 3 4 3 4 4 3 3 3 1 1 3 2 3 2 4 3 1 3 4 2 3 5 6 9 11 11 10 7 5 3 3 5 11 12 12 13 13 14 14 14 13 12 14 16 17 17 18 19 20 21 20 20 20 19 18 17 15 12 10 11 16 21 26 28 28 29 31 33 35 37 38 39 40 42 43 43 44 44 41 38 36 36 37 39
3 3 2 3 3 3 4 3 1 2 1 1 4 6 2 4 4 3 4 5 5 4 5 8 10 11 14 16 14 10 8 6 6 7 9 11 12 12 12 11 9 10 12 11 10 13 16 16 17 18 18 20 20 19 20 20 19 17 16 15 13 10 9 12 17 19 20 24 28 30 30 31 33 34 36 37 39 40 43 44 43 41 39 36 35 36
1 1 1 2 3 2 3 3 0 2 2 4 7 5 1 4 3 3 4 6 7 8 9 12 13 13 14 16 16 13 10 9 10 10 10 11 12 12 13 13 11 10 12 12 11 13 15 16 17 17 17 18 18 18 18 18 18 18 17 16 14 13 12 12 12 13 13 15 19 20 22 24 26 27 29 31 33 35 38 40 42 42 40 38 36 35
2 2 0 1 2 2 2 2 1 3 3 8 6 2 1 1 4 6 10 10 10 11 13 14 15 14 14 15 16 15 14 15 16 16 16 16 16 16 16 16 16 15 15 16 16 16 17 18 19 19 18 18 17 17 17 17 17 17 16 16 16 14 13 12 13 14 14 14 14 14 15 17 19 20 22 24 28 31 33 34 34 34 36 38 38 36
1 1 1 2 0 2 3 2 3 4 3 8 6 2 2 3 6 11 12 12 12 12 13 14 15 16 17 20 21 21 21 22 22 22 21 21 21 21 20 19 18 18 18 18 18 17 17 18 19 19 20 19 17 16 16 16 17 17 16 15 15 14 13 13 14 14 14 15 15 15 15 15 15 14 15 17 20 23 26 29 30 30 32 36 37 37
1 2 4 2 2 2 3 2 3 2 4 10 11 9 8 9 11 13 13 13 13 12 12 16 18 20 22 25 26 26 26 25 25 24 24 24 23 22 21 20 18 17 16 16 16 16 16 17 17 18 18 18 18 17 16 16 16 17 17 17 16 14 14 14 14 14 15 15 16 16 15 14 13 12 11 11 13 15 17 20 24 25 27 32 35 36
0 1 3 3 2 3 5 6 4 3 8 12 13 13 13 14 15 15 15 15 13 11 13 18 21 23 25 26 27 27 26 24 24 24 23 23 23 22 21 20 18 17 16 15 15 15 15 15 15 16 16 16 16 16 15 15 16 16 17 18 17 16 16 15 15 15 15 16 16 16 16 14 12 10 8 8 10 11 11 12 14 16 19 23 26 28
2 2 4 3 3 3 3 5 5 6 9 13 14 15 15 14 14 15 16 14 13 14 16 20 24 25 25 25 26 27 26 24 24 23 22 22 22 21 20 19 19 18 17 16 16 15 14 15 15 16 16 15 15 14 14 14 14 15 16 16 17 17 16 16 16 16 16 16 17 17 16 15 14 12 10 9 9 9 9 9 11 12 14 16 17 19
2 4 4 2 2 3 3 4 7 11 12 13 15 15 14 13 13 13 14 15 16 19 20 22 24 24 24 25 24 25 25 24 23 22 22 22 21 20 19 19 18 17 16 16 15 14 14 15 15 15 16 15 15 15 14 13 13 14 14 15 16 16 16 16 16 16 16 16 16 16 16 16 16 15 14 13 13 12 10 9 9 11 12 13 15 15
3 2 2 3 4 5 5 6 10 13 12 10 11 11 11 12 13 14 16 19 21 23 23 24 24 23 23 23 21 21 23 23 21 21 21 21 20 19 19 18 17 16 15 15 15 15 15 15 15 15 15 16 16 16 16 15 15 14 14 15 15 15 15 15 15 16 16 15 14 14 13 14 14 15 15 15 15 15 14 12 10 10 11 12 14 14
3 1 2 4 5 3 2 4 6 8 7 5 7 9 12 16 19 20 21 23 23 22 22 23 23 22 22 20 19 19 20 20 19 18 19 19 20 19 19 18 17 17 16 15 15 15 16 16 16 16 16 17 17 18 18 18 17 16 16 15 14 14 14 15 15 15 16 16 15 15 14 13 13 13 14 14 15 15 15 13 11 10 10 12 14 14
3 5 3 3 4 4 6 10 10 10 9 8 12 17 21 23 25 25 24 23 22 20 19 20 20 20 20 19 18 18 18 17 17 16 17 18 18 18 18 18 18 17 16 16 16 16 17 18 18 18 18 19 18 18 19 19 18 17 16 15 14 14 14 15 16 16 16 17 17 17 16 16 15 14 14 14 15 16 15 14 13 11 10 11 12 14
Wind_Direction
156 138 209 211 218 221 219 205 205 190 138 137 129 125 183 213 261 238 242 212 160 145 195 179 161 175 185 194 199 191 190 203 213 218 224 223 224 226 228 229 227 226 223 216 214 217 218 218 223 227 225 221 216 215 225 241 237 213 206 194 167 147 139 142 153 160 154 95 51 60 85 83 85 91 88 88 91 93 94 96 95 96 94 88 84 82
131 171 237 227 215 215 224 219 206 144 118 120 119 70 278 224 251 254 228 195 163 140 183 160 155 189 192 190 195 183 184 208 212 213 221 223 226 228 230 232 229 229 228 226 223 220 218 218 222 226 223 218 213 214 224 237 233 211 203 195 180 158 144 143 144 144 126 89 55 60 101 96 94 103 102 98 97 96 96 97 95 92 88 83 80 81
117 239 247 237 189 194 233 237 226 190 130 107 115 117 299 267 264 297 342 151 156 124 135 162 168 222 231 186 181 188 196 214 214 215 222 223 227 229 231 233 232 232 233 232 228 223 220 218 220 223 224 221 217 219 227 233 224 208 202 199 190 168 154 151 143 134 115 99 69 94 130 116 107 113 112 105 101 100 98 97 96 93 89 86 82 82
200 245 245 218 144 170 222 235 233 238 169 132 132 146 281 289 314 298 355 96 129 100 138 155 150 304 275 167 184 208 211 221 220 220 227 229 231 234 234 235 235 235 235 233 229 225 221 218 219 220 222 222 217 219 226 229 219 206 205 205 198 178 167 164 154 142 126 133 136 145 147 131 119 121 118 113 108 105 101 98 98 97 94 91 89 89
233 247 226 128 155 177 187 198 206 222 239 202 166 183 238 285 99 193 127 92 97 20 88 110 60 320 231 175 217 215 211 229 226 219 227 232 236 240 240 240 239 239 239 236 231 225 220 218 218 217 220 221 219 221 225 227 218 207 207 206 200 189 180 174 169 162 155 167 168 154 155 144 131 127 122 121 117 110 105 101 99 98 96 92 92 92
247 255 225 141 172 175 172 189 194 191 211 266 199 196 189 132 91 113 123 95 66 336 265 110 73 302 279 205 220 189 191 226 222 216 224 230 234 237 239 241 240 241 240 239 236 230 223 218 217 217 219 220 220 223 224 224 216 207 205 201 199 201 190 180 176 170 173 181 168 153 158 151 140 132 126 129 126 117 110 105 102 97 93 91 91 92
257 261 216 210 202 182 195 223 211 179 147 329 225 192 172 130 112 130 136 96 100 235 262 108 126 263 313 257 226 184 189 220 212 216 228 229 231 232 236 240 241 240 239 238 237 233 227 221 217 216 216 218 219 221 220 217 211 205 201 195 196 207 199 186 182 179 184 182 162 149 155 154 148 139 133 136 137 128 117 110 104 98 93 92 92 95
244 286 190 215 196 166 195 237 217 168 133 256 226 168 147 124 135 158 130 92 162 199 336 33 115 183 304 267 242 181 187 223 223 223 230 228 229 231 236 239 240 241 239 236 233 231 228 222 220 218 216 216 216 217 217 212 208 204 197 192 194 205 204 194 189 193 199 185 166 156 157 162 164 156 145 146 148 138 126 117 109 104 101 98 99 103
224 202 206 192 154 162 203 226 187 156 144 243 194 123 119 105 129 144 108 94 99 71 339 316 103 123 272 276 300 157 184 223 227 225 224 220 225 229 233 236 239 241 240 237 232 228 226 222 222 221 217 215 214 216 214 208 206 204 196 193 196 203 205 198 191 195 202 192 178 168 165 171 176 174 168 162 160 149 135 125 117 113 112 110 109 109
246 221 206 159 158 208 218 229 179 159 161 177 111 89 80 70 72 82 94 106 52 47 265 258 158 133 274 280 4 113 196 223 222 226 225 216 219 225 229 233 235 236 236 235 232 228 225 223 222 222 217 214 213 213 211 207 206 203 198 197 199 202 203 196 191 194 197 194 186 173 168 175 179 179 176 171 167 158 145 136 132 130 127 124 117 110
279 256 212 170 187 190 146 86 149 150 138 122 97 75 66 45 38 51 59 86 64 347 268 248 187 136 306 280 223 170 214 213 199 217 230 216 216 221 226 229 230 232 232 231 229 227 225 222 221 221 217 214 212 211 209 205 205 203 200 200 200 201 202 197 192 192 191 190 188 177 174 179 180 178 176 173 170 163 155 150 148 147 142 134 126 120
324 335 226 228 165 129 98 62 60 107 117 108 88 85 84 18 9 30 357 39 83 265 273 264 164 117 143 266 240 227 250 224 182 198 216 212 214 219 221 224 227 228 228 227 225 222 220 218 218 217 215 213 212 211 207 203 204 203 201 202 200 201 203 201 196 193 192 190 187 182 179 179 180 182 179 175 172 166 163 162 160 158 152 143 139 127
323 244 275 338 143 135 107 74 51 32 56 89 97 94 86 16 7 14 320 340 186 240 263 180 114 112 229 251 254 250 254 236 197 198 205 207 212 217 220 221 223 224 223 223 221 219 217 215 215 214 213 212 211 211 207 203 203 203 202 203 201 201 204 206 200 196 196 193 187 183 181 177 178 183 182 180 176 170 171 172 168 163 158 153 144 108
328 310 345 33 225 172 128 115 114 130 147 139 136 123 119 104 70 304 271 298 262 258 298 244 186 284 283 264 243 242 249 234 214 206 206 209 213 218 220 219 217 219 219 220 219 218 217 216 214 213 212 211 211 211 208 204 203 203 203 203 203 201 204 208 206 202 201 198 189 183 182 180 179 184 183 180 175 174 179 179 172 171 169 162 142 99
6 314 278 153 232 181 146 152 159 143 136 163 148 122 138 153 139 220 226 184 229 253 307 298 229 185 245 252 231 244 271 255 221 212 211 213 216 217 216 212 211 214 215 217 219 219 220 219 216 214 212 212 211 210 209 206 205 205 204 204 204 202 204 208 209 206 204 201 192 185 184 183 181 184 185 182 179 180 187 185 180 183 182 171 141 103
80 270 252 260 233 172 169 183 128 103 93 215 119 107 146 184 142 108 176 169 175 171 266 282 232 212 219 264 292 307 326 302 200 203 208 210 211 206 204 205 208 210 212 214 217 219 220 220 217 215 213 212 212 211 210 209 207 207 206 205 204 203 204 207 210 208 206 203 196 188 188 188 186 187 190 189 187 188 192 192 190 192 192 181 147 111
79 275 272 307 301 187 174 162 112 105 135 142 121 172 220 170 122 109 142 67 64 91 239 280 278 297 314 283 316 4 38 50 116 170 192 195 193 194 199 204 206 209 211 215 217 219 220 219 218 217 214 213 212 212 212 211 210 209 208 207 205 204 204 206 209 209 206 204 200 193 191 192 192 192 195 196 195 195 197 197 198 201 202 191 157 124
138 281 285 279 259 265 132 108 57 43 116 125 188 208 200 107 99 112 113 10 39 93 287 340 297 300 15 83 322 6 50 56 95 138 152 171 184 194 201 204 207 210 212 216 219 220 221 221 219 218 216 214 213 214 214 214 214 212 212 212 208 205 205 205 206 208 207 205 202 198 194 195 197 197 198 199 199 202 204 203 204 206 208 201 173 143
141 302 293 271 178 304 74 89 44 344 47 119 178 168 117 127 160 85 107 117 76 106 299 320 301 265 154 229 308 338 170 181 152 146 147 169 190 200 206 207 207 208 211 214 218 220 221 223 222 220 218 216 214 215 217 217 217 215 214 214 212 209 208 206 205 207 209 207 204 203 200 198 200 199 200 201 202 206 208 208 209 210 214 212 190 162
120 122 283 296 24 37 36 77 151 268 335 45 112 106 77 133 161 146 136 160 131 128 228 330 356 288 226 227 235 241 234 212 177 175 182 193 199 204 209 208 207 209 213 215 219 222 224 225 224 222 220 218 214 215 217 218 220 218 216 215 213 212 210 208 207 208 210 209 207 208 206 203 202 201 201 202 204 209 210 211 212 213 219 220 207 186
74 115 235 297 344 51 131 188 179 192 200 84 111 164 359 71 127 148 78 71 114 134 161 100 44 280 260 216 211 256 263 231 202 196 197 203 203 207 212 212 212 214 216 219 221 223 225 226 226 224 221 219 216 215 217 220 221 221 218 216 214 213 211 210 209 209 212 213 211 211 211 208 205 203 202 203 207 211 213 214 215 215 222 226 220 209
123 139 185 289 338 226 237 255 203 182 173 151 155 181 167 127 125 118 76 308 88 103 161 142 138 267 267 222 250 280 282 259 243 229 222 213 205 207 214 215 217 220 220 223 225 224 225 226 226 225 222 219 217 216 217 219 222 221 218 216 215 215 215 213 212 211 214 216 215 215 214 212 210 207 206 206 209 213 215 217 216 217 225 230 230 228
145 108 112 264 260 232 255 278 247 157 136 121 128 157 145 131 119 122 176 227 86 60 148 116 106 262 265 296 320 308 296 285 272 249 243 236 216 209 212 215 219 223 225 226 225 223 223 225 226 226 224 222 219 217 217 218 220 219 217 215 215 216 216 216 215 215 216 219 220 218 217 216 214 213 211 210 212 215 216 218 218 220 226 233 236 238
94 80 75 292 300 300 299 321 2 46 87 88 57 91 128 140 126 140 175 175 122 138 145 87 73 266 277 321 352 355 352 356 359 324 257 249 242 224 216 215 217 222 225 225 223 222 222 224 226 225 225 224 222 220 219 219 220 220 217 215 215 217 218 217 217 217 217 220 222 222 222 221 221 219 217 215 215 216 217 218 220 222 227 233 238 242
137 77 95 68 2 348 343 352 350 349 43 86 70 6 96 114 103 119 149 88 94 183 145 107 180 249 266 335 4 8 6 8 6 0 338 279 264 247 228 220 217 219 221 220 220 219 219 222 224 225 225 225 225 223 221 220 221 222 220 219 218 219 220 220 220 219 219 221 223 225 226 225 226 226 224 220 218 219 219 219 222 224 227 233 238 242
141 126 123 116 120 168 187 249 251 256 360 58 50 11 26 100 110 135 131 72 91 191 125 126 198 249 300 354 4 4 6 0 352 356 357 340 305 270 243 228 221 219 218 217 218 218 220 222 223 225 226 225 226 227 224 222 222 223 224 224 223 222 223 223 223 222 222 223 225 227 228 229 229 230 229 226 223 222 222 221 223 226 228 232 237 241
113 66 113 139 151 182 190 217 239 185 108 70 347 356 352 27 90 99 99 106 180 149 76 206 195 249 345 354 356 352 357 355 347 352 354 352 346 312 256 234 225 222 219 217 217 218 219 221 223 226 227 227 228 229 229 227 225 225 226 225 225 225 226 227 226 225 224 225 226 228 230 231 232 232 233 231 228 226 226 224 225 227 228 230 235 239
104 62 95 133 122 175 188 234 289 61 103 128 12 353 343 353 33 82 98 205 165 115 42 255 183 72 360 350 351 346 349 349 345 352 353 356 2 356 284 240 227 222 220 219 220 220 220 220 223 226 227 228 229 230 232 232 230 229 228 228 227 226 227 228 228 228 227 228 229 229 230 232 234 235 236 235 233 231 229 228 227 228 230 231 233 236
115 78 156 115 50 33 41 355 9 84 105 88 60 30 9 23 48 85 98 282 144 129 195 206 101 73 6 355 354 347 349 346 347 1 11 17 22 27 29 308 234 229 226 223 221 221 221 222 225 229 230 231 233 233 235 236 234 233 231 231 231 229 229 230 230 231 231 231 231 231 232 234 235 237 237 237 237 235 233 231 230 230 232 233 233 235
111 58 284 116 58 28 24 15 28 70 89 59 45 34 35 55 67 77 72 340 60 102 143 117 95 81 33 5 356 356 2 11 22 27 30 30 29 36 44 45 38 5 271 247 239 232 229 229 231 233 233 232 235 238 240 242 241 238 236 235 234 234 233 232 234 235 235 235 236 235 235 236 236 238 238 238 239 238 237 234 232 232 234 235 235 236
82 105 264 80 64 11 10 19 14 30 82 79 48 28 25 44 57 61 42 17 61 80 98 100 94 79 33 4 4 22 32 37 37 34 33 31 30 35 40 41 43 43 38 12 282 256 247 243 242 243 241 239 240 243 244 246 246 245 243 241 240 240 238 236 237 239 240 240 240 239 239 239 239 239 240 240 241 240 239 238 235 234 235 236 236 237
67 117 286 56 76 320 357 21 355 354 60 73 44 32 24 28 51 63 49 38 75 109 86 78 89 73 343 345 18 43 46 46 41 34 33 32 33 37 39 38 42 45 47 51 50 24 258 246 247 252 252 249 249 250 251 253 252 251 250 248 246 246 244 241 241 242 244 245 244 243 242 242 242 242 242 242 242 242 242 241 239 237 236 236 237 237
83 119 124 80 103 253 359 28 347 349 33 11 341 23 45 62 80 79 60 50 68 111 102 93 109 68 315 338 44 53 49 49 46 40 36 34 36 41 41 40 42 45 47 48 48 51 54 49 250 255 256 253 252 254 258 260 260 260 261 261 258 252 249 249 249 248 248 249 247 246 244 244 244 244 245 245 245 245 245 244 243 241 240 239 239 238
77 102 133 119 116 233 353 38 14 352 360 262 276 352 102 107 98 90 67 48 43 57 80 88 67 28 358 3 55 69 65 59 54 48 45 42 42 43 43 42 42 45 47 48 47 48 49 49 44 319 273 264 260 261 261 260 260 262 266 268 266 260 256 255 255 254 253 252 249 247 246 247 247 247 247 247 247 247 247 246 245 244 243 243 242 240
81 91 126 106 103 124 33 54 37 297 258 222 357 47 78 85 87 88 73 51 43 43 51 57 38 13 4 359 62 97 85 67 56 51 48 48 47 47 46 44 44 45 46 45 44 43 42 41 40 33 13 338 297 278 269 262 259 260 264 267 268 266 262 260 258 257 256 254 252 250 248 248 249 250 250 249 249 249 248 248 248 246 245 245 244 243
120 121 114 62 88 124 104 100 163 252 258 186 10 25 64 51 53 75 59 37 40 39 35 48 34 5 355 352 143 148 116 71 53 47 46 49 50 50 49 48 48 49 48 45 42 40 37 34 33 30 23 11 355 333 309 289 272 262 260 262 265 266 265 264 262 260 257 256 255 254 252 252 251 252 252 252 252 251 250 250 250 249 248 247 246 246
118 131 110 77 92 128 126 136 168 291 285 244 268 305 167 196 186 134 99 29 36 37 30 41 25 355 344 355 134 170 157 79 49 39 40 46 48 47 47 48 48 48 45 41 39 38 36 33 31 29 23 12 2 355 345 331 311 286 271 266 265 264 264 265 265 262 259 258 258 258 257 257 257 256 256 255 255 255 254 253 253 253 252 250 249 247
77 137 150 143 141 105 107 104 70 25 254 223 194 189 149 151 183 170 129 62 24 27 35 45 18 359 353 3 114 160 155 75 42 22 28 42 46 37 33 37 40 38 33 29 28 30 32 32 30 28 25 19 12 6 360 351 342 327 295 273 265 262 262 266 269 270 268 266 266 265 264 263 262 262 261 260 259 258 258 258 258 258 258 256 255 253
47 38 102 116 116 112 115 126 167 195 232 217 179 176 117 197 199 180 74 28 221 41 52 76 36 14 9 18 82 131 120 67 77 23 26 42 46 33 28 27 25 24 25 23 23 27 29 30 30 28 25 26 25 19 11 2 354 351 340 302 273 262 260 262 265 267 268 269 270 270 269 267 266 266 265 264 263 263 261 259 258 259 260 261 261 261
31 19 56 114 154 166 145 143 191 212 231 196 203 257 298 215 169 142 133 236 208 147 76 73 49 31 31 43 65 85 70 69 93 33 28 42 46 38 33 22 7 6 15 14 17 26 29 27 28 27 25 28 29 25 20 13 5 2 0 352 325 285 266 261 261 264 266 269 272 271 269 267 267 267 267 267 267 266 263 261 260 259 260 263 265 265
17 17 54 136 149 159 149 139 249 269 263 270 289 304 302 153 143 153 212 208 171 121 79 73 66 54 52 57 65 73 69 66 61 39 36 48 51 49 46 37 21 20 25 17 8 15 20 21 23 25 24 23 24 25 24 21 18 17 12 6 359 345 319 294 283 280 275 272 273 273 271 270 270 271 272 272 271 268 266 266 264 261 259 260 261 261
134 48 42 121 117 120 138 122 270 260 301 336 320 317 98 145 189 203 167 145 130 109 86 78 77 73 69 69 72 80 83 76 68 62 58 57 58 59 58 58 60 56 46 38 30 27 28 28 28 28 24 20 18 21 23 22 22 24 21 16 12 5 352 339 328 319 304 287 280 277 275 273 271 271 273 275 274 272 271 271 268 265 263 262 261 260
155 123 93 149 127 110 106 87 150 212 307 352 344 308 85 125 175 141 115 112 112 99 84 78 77 78 85 86 84 88 91 85 79 77 74 72 73 74 71 69 69 66 61 57 52 46 44 41 37 34 31 25 20 19 20 21 22 23 22 21 21 17 4 353 345 338 331 324 314 303 294 287 282 279 277 277 276 275 275 274 270 269 268 266 263 260
54 103 193 224 112 115 142 160 191 207 316 11 36 104 101 90 122 122 113 110 108 97 86 82 81 84 92 95 94 93 91 85 81 79 77 76 76 76 75 73 70 67 63 59 54 48 44 41 37 36 34 30 26 22 17 15 15 16 16 15 15 13 10 6 2 355 349 344 338 333 326 317 312 308 298 287 279 276 274 272 270 269 268 265 263 260
11 148 154 130 67 124 153 177 206 218 15 40 62 79 84 97 114 116 109 99 92 88 89 91 93 95 97 98 95 90 86 82 79 76 74 73 72 71 71 69 67 64 59 54 49 43 39 37 35 33 32 31 29 25 19 11 6 4 6 7 5 2 360 358 357 354 352 351 350 351 348 340 334 329 319 307 297 289 282 277 273 271 269 267 265 264
254 152 131 114 119 113 77 58 53 49 45 55 70 78 84 97 107 105 96 87 81 85 93 96 97 97 96 95 92 86 82 80 78 74 71 70 68 66 65 64 62 59 54 48 43 36 32 31 28 28 30 30 29 27 22 15 8 3 0 359 358 358 357 354 352 350 348 347 348 351 352 351 348 343 332 314 305 302 299 293 286 279 272 268 267 268
343 61 80 91 113 109 57 27 27 51 61 70 80 84 85 90 95 92 87 85 87 92 94 95 95 93 90 88 86 82 78 76 73 70 66 64 62 59 57 56 54 52 49 46 41 35 29 26 24 23 24 24 24 23 19 12 8 4 0 355 353 354 354 352 352 352 351 352 352 351 350 348 346 345 342 330 318 309 301 293 290 285 280 278 279 277
6 69 77 65 58 85 98 83 77 79 80 86 94 94 88 86 88 93 95 94 93 94 93 92 91 89 86 83 81 79 75 70 66 64 61 57 55 52 49 47 46 45 44 41 37 31 26 24 22 20 17 15 15 14 10 6 2 358 355 354 352 351 350 350 350 350 350 351 352 353 353 350 345 342 338 334 330 325 315 302 290 283 282 286 289 288
333 32 100 112 92 76 82 97 94 83 77 89 106 105 98 98 102 107 109 105 100 97 93 89 86 83 80 78 75 73 70 66 61 59 56 52 49 45 42 40 38 37 37 36 34 30 27 24 20 15 11 8 7 4 1 359 356 352 350 349 348 346 345 344 344 345 346 346 346 347 351 352 351 348 343 338 334 328 324 319 307 293 292 297 300 299
14 43 90 103 105 105 140 166 142 103 90 115 126 115 115 119 117 114 111 105 99 96 92 87 83 78 75 71 66 64 64 62 56 52 51 48 43 38 33 30 28 30 32 32 31 29 27 23 17 11 6 2 359 357 355 354 352 349 347 344 342 340 339 337 335 335 336 338 339 340 342 343 346 347 346 345 342 337 332 327 321 310 304 307 310 309
130 149 147 113 107 120 153 161 144 115 110 130 128 120 121 122 117 111 106 100 95 91 86 81 76 72 68 64 58 55 55 53 48 43 42 41 38 32 28 23 19 19 20 20 19 20 20 19 14 9 6 2 357 352 350 349 348 347 346 343 340 338 337 335 333 332 331 331 331 332 334 335 334 334 336 339 342 342 339 335 331 322 310 304 304 305
Height
1472 1476 1479 1477 1475 1473 1472 1472 1472 1473 1475 1477 1479 1481 1483 1484 1482 1478 1476 1474 1475 1482 1487 1487 1489 1489 1489 1490 1491 1492 1494 1495 1495 1496 1497 1498 1498 1499 1500 1501 1502 1503 1504 1506 1507 1508 1509 1510 1511 1512 1513 1513 1514 1515 1516 1516 1517 1518 1519 1519 1520 1520 1520 1521 1521 1522 1522 1522 1522 1522 1523 1523 1523 1522 1522 1521 1521 1521 1521 1521 1521 1521 1521 1521 1520 1520
1473 1479 1475 1469 1468 1468 1468 1468 1471 1475 1476 1477 1480 1482 1482 1483 1480 1474 1473 1474 1473 1479 1486 1487 1489 1489 1488 1489 1491 1492 1493 1493 1493 1494 1495 1495 1497 1498 1499 1500 1500 1502 1503 1505 1506 1507 1508 1509 1510 1511 1512 1513 1513 1514 1515 1516 1517 1518 1519 1520 1520 1520 1521 1521 1522 1523 1523 1523 1523 1523 1524 1524 1524 1524 1523 1523 1523 1523 1523 1523 1523 1523 1523 1522 1522 1521
1478 1477 1467 1463 1466 1467 1468 1468 1470 1474 1476 1477 1480 1481 1481 1479 1477 1473 1473 1475 1475 1479 1485 1487 1490 1490 1488 1488 1490 1491 1491 1490 1490 1492 1493 1495 1496 1497 1498 1498 1499 1501 1502 1503 1505 1506 1507 1508 1509 1510 1511 1512 1513 1514 1515 1516 1517 1518 1519 1519 1520 1521 1522 1522 1523 1524 1524 1524 1524 1524 1525 1525 1526 1525 1525 1525 1525 1525 1525 1525 1525 1525 1524 1524 1524 1523
1481 1471 1460 1461 1465 1466 1468 1469 1470 1473 1475 1477 1479 1481 1480 1477 1478 1477 1476 1478 1477 1479 1484 1486 1489 1491 1489 1488 1489 1489 1489 1489 1490 1491 1493 1494 1495 1495 1496 1498 1499 1500 1501 1502 1503 1505 1506 1507 1508 1509 1511 1512 1513 1514 1515 1516 1517 1518 1519 1519 1521 1521 1522 1523 1523 1524 1525 1525 1525 1525 1526 1527 1527 1527 1527 1526 1526 1526 1526 1526 1526 1526 1526 1526 1526 1526
1472 1461 1457 1461 1463 1465 1468 1470 1471 1474 1476 1477 1477 1479 1477 1476 1478 1479 1479 1480 1480 1481 1482 1485 1493 1493 1488 1489 1488 1487 1489 1489 1490 1491 1491 1492 1493 1495 1496 1497 1498 1498 1499 1501 1502 1503 1505 1506 1507 1508 1510 1511 1512 1513 1514 1515 1516 1518 1519 1519 1521 1522 1522 1523 1524 1525 1525 1526 1526 1526 1527 1527 1528 1528 1528 1528 1528 1528 1528 1528 1528 1528 1528 1528 1528 1528
1466 1457 1457 1461 1462 1464 1466 1468 1470 1471 1475 1476 1474 1473 1473 1473 1476 1479 1480 1482 1488 1491 1482 1484 1497 1496 1489 1489 1486 1485 1488 1488 1489 1490 1489 1490 1491 1493 1494 1494 1495 1497 1498 1500 1501 1503 1504 1505 1507 1508 1509 1510 1511 1513 1514 1515 1517 1518 1519 1519 1520 1522 1523 1524 1525 1525 1526 1526 1527 1527 1528 1528 1529 1529 1529 1530 1530 1529 1530 1530 1530 1530 1530 1530 1530 1530
1462 1456 1456 1459 1461 1463 1465 1467 1466 1467 1476 1478 1469 1465 1468 1469 1472 1479 1480 1481 1491 1494 1483 1481 1494 1498 1492 1488 1484 1484 1487 1487 1487 1488 1486 1487 1489 1489 1490 1491 1493 1494 1496 1498 1499 1501 1503 1504 1505 1507 1508 1509 1511 1513 1514 1515 1517 1518 1518 1519 1521 1522 1523 1524 1525 1526 1526 1527 1528 1528 1529 1529 1530 1530 1530 1531 1531 1531 1531 1531 1531 1531 1531 1531 1531 1531
1457 1456 1457 1457 1459 1464 1467 1466 1462 1463 1473 1475 1464 1462 1467 1467 1470 1476 1477 1479 1486 1487 1485 1484 1488 1496 1495 1486 1482 1483 1485 1487 1487 1486 1485 1484 1485 1486 1487 1488 1490 1492 1493 1495 1497 1499 1501 1502 1504 1505 1507 1509 1510 1512 1514 1515 1516 1517 1518 1519 1521 1522 1523 1524 1525 1526 1527 1528 1529 1529 1529 1530 1530 1531 1531 1532 1532 1532 1532 1533 1533 1533 1533 1532 1533 1532
1454 1456 1456 1456 1460 1463 1462 1459 1456 1459 1467 1467 1462 1464 1467 1467 1470 1473 1475 1480 1484 1486 1490 1489 1487 1497 1497 1484 1483 1486 1485 1487 1485 1482 1482 1481 1482 1483 1484 1486 1487 1490 1491 1493 1495 1497 1499 1501 1502 1504 1506 1508 1510 1512 1513 1514 1516 1517 1518 1519 1520 1522 1523 1524 1525 1526 1527 1528 1529 1530 1530 1530 1531 1531 1532 1532 1533 1533 1533 1534 1534 1534 1534 1534 1534 1534
1453 1453 1452 1454 1458 1457 1454 1453 1453 1456 1461 1462 1463 1466 1467 1470 1472 1474 1478 1479 1484 1490 1491 1488 1488 1497 1496 1482 1482 1488 1485 1483 1480 1477 1477 1477 1479 1480 1481 1483 1485 1488 1490 1491 1493 1495 1497 1500 1501 1504 1506 1508 1510 1511 1513 1514 1516 1517 1518 1519 1520 1522 1523 1524 1525 1526 1527 1528 1529 1530 1530 1531 1531 1531 1532 1533 1534 1534 1534 1535 1535 1535 1535 1535 1535 1535
1451 1450 1450 1451 1451 1450 1451 1453 1454 1455 1458 1459 1463 1466 1469 1473 1474 1477 1481 1479 1488 1495 1489 1487 1487 1492 1496 1484 1479 1482 1476 1472 1473 1473 1474 1475 1477 1478 1478 1481 1483 1485 1487 1489 1492 1494 1497 1499 1501 1503 1505 1507 1509 1510 1512 1513 1515 1516 1517 1518 1520 1521 1523 1524 1525 1526 1527 1528 1529 1530 1530 1531 1531 1532 1533 1533 1534 1535 1535 1536 1536 1536 1536 1536 1536 1536
1450 1450 1450 1446 1445 1448 1450 1454 1456 1456 1457 1459 1463 1467 1473 1480 1480 1483 1485 1483 1496 1500 1489 1489 1490 1492 1499 1485 1472 1471 1466 1464 1468 1468 1470 1471 1473 1474 1476 1478 1480 1482 1485 1487 1490 1492 1495 1498 1500 1502 1504 1506 1508 1509 1511 1512 1513 1515 1516 1518 1519 1521 1522 1523 1524 1525 1526 1528 1529 1529 1530 1531 1532 1532 1533 1534 1535 1536 1536 1536 1537 1537 1537 1537 1537 1538
1450 1448 1448 1445 1444 1446 1449 1457 1463 1461 1460 1461 1465 1470 1480 1491 1494 1495 1497 1497 1501 1498 1489 1491 1491 1493 1495 1478 1465 1467 1464 1463 1464 1462 1464 1467 1468 1471 1473 1475 1478 1481 1483 1485 1488 1490 1493 1496 1498 1500 1502 1504 1506 1507 1509 1511 1512 1514 1515 1517 1518 1520 1522 1523 1524 1525 1526 1527 1528 1529 1530 1531 1532 1533 1534 1535 1535 1536 1537 1537 1537 1538 1538 1538 1538 1538
1455 1450 1447 1448 1447 1445 1446 1456 1465 1465 1463 1463 1465 1470 1482 1496 1503 1505 1509 1508 1502 1494 1489 1490 1490 1491 1486 1471 1463 1463 1460 1460 1460 1459 1461 1463 1465 1468 1470 1473 1476 1479 1481 1483 1486 1488 1490 1493 1496 1498 1500 1502 1504 1506 1508 1509 1511 1513 1514 1516 1517 1519 1521 1522 1524 1525 1526 1527 1528 1529 1530 1531 1532 1533 1534 1535 1536 1537 1537 1537 1538 1539 1539 1539 1539 1539
1467 1462 1450 1447 1447 1444 1444 1449 1453 1455 1460 1463 1462 1466 1475 1484 1490 1496 1500 1498 1496 1495 1493 1489 1488 1488 1480 1467 1462 1460 1457 1458 1458 1459 1461 1462 1465 1467 1469 1473 1475 1477 1479 1481 1484 1486 1488 1491 1494 1496 1499 1500 1503 1504 1506 1508 1509 1511 1513 1514 1516 1518 1519 1521 1523 1524 1525 1526 1527 1528 1529 1530 1532 1533 1534 1535 1536 1537 1537 1538 1538 1539 1539 1540 1540 1539
1472 1466 1448 1443 1444 1442 1445 1446 1445 1451 1461 1466 1464 1466 1472 1470 1473 1488 1497 1494 1493 1494 1493 1490 1486 1481 1473 1463 1460 1459 1457 1458 1458 1460 1462 1463 1466 1468 1470 1472 1473 1475 1478 1479 1482 1484 1486 1489 1492 1495 1497 1499 1501 1503 1504 1506 1508 1509 1511 1513 1515 1516 1518 1520 1521 1523 1524 1526 1527 1528 1529 1530 1531 1532 1533 1534 1536 1537 1537 1538 1539 1539 1540 1540 1540 1540
1469 1461 1445 1443 1443 1441 1444 1445 1444 1450 1458 1466 1467 1466 1467 1463 1464 1482 1497 1500 1497 1492 1493 1495 1485 1474 1470 1464 1460 1460 1459 1459 1461 1461 1463 1464 1466 1468 1469 1470 1472 1474 1475 1477 1479 1482 1484 1487 1490 1492 1495 1497 1499 1501 1503 1505 1506 1508 1510 1512 1513 1515 1517 1518 1520 1522 1523 1524 1526 1527 1528 1529 1530 1531 1533 1534 1535 1536 1537 1538 1539 1539 1540 1540 1540 1540
1462 1458 1447 1444 1446 1443 1443 1444 1445 1446 1450 1462 1467 1462 1461 1464 1465 1471 1484 1495 1498 1494 1493 1495 1488 1479 1477 1471 1462 1460 1461 1462 1463 1463 1464 1466 1466 1467 1468 1468 1470 1472 1474 1476 1478 1481 1483 1485 1488 1491 1493 1496 1498 1500 1502 1504 1506 1508 1509 1511 1513 1514 1515 1517 1519 1521 1522 1523 1525 1526 1527 1528 1529 1530 1532 1533 1535 1536 1537 1538 1538 1539 1540 1540 1541 1541
1457 1460 1451 1445 1447 1446 1443 1446 1452 1450 1448 1453 1457 1455 1459 1468 1469 1470 1478 1486 1492 1497 1496 1493 1491 1487 1481 1473 1464 1461 1462 1462 1464 1465 1464 1465 1465 1466 1467 1468 1470 1472 1474 1476 1478 1480 1482 1484 1487 1489 1492 1495 1497 1500 1502 1504 1506 1507 1509 1510 1512 1514 1515 1516 1518 1519 1521 1522 1524 1525 1526 1527 1529 1530 1531 1532 1534 1535 1536 1537 1538 1539 1540 1540 1541 1541
1454 1462 1458 1447 1446 1447 1446 1450 1456 1456 1452 1451 1453 1455 1458 1464 1468 1471 1476 1478 1482 1495 1500 1493 1489 1484 1476 1471 1467 1462 1462 1462 1464 1464 1463 1463 1464 1464 1465 1467 1469 1471 1472 1474 1476 1478 1480 1482 1485 1488 1491 1493 1496 1499 1501 1502 1504 1506 1508 1509 1511 1513 1514 1515 1517 1518 1520 1521 1522 1524 1525 1527 1528 1529 1530 1532 1533 1534 1535 1537 1538 1539 1540 1540 1541 1541
1453 1462 1462 1452 1447 1451 1452 1451 1452 1452 1453 1454 1457 1460 1461 1464 1469 1470 1476 1480 1479 1486 1495 1496 1492 1483 1471 1469 1468 1463 1462 1462 1462 1462 1461 1461 1461 1462 1464 1465 1467 1469 1470 1472 1474 1476 1479 1481 1484 1486 1489 1492 1495 1498 1500 1501 1503 1505 1506 1508 1510 1512 1513 1514 1516 1517 1519 1520 1521 1523 1524 1525 1527 1528 1530 1531 1532 1534 1535 1537 1538 1539 1540 1540 1541 1542
1452 1459 1461 1456 1452 1453 1452 1448 1447 1446 1448 1451 1453 1457 1460 1462 1467 1471 1480 1485 1481 1482 1489 1492 1492 1482 1469 1467 1467 1465 1463 1462 1462 1462 1461 1460 1459 1460 1462 1464 1466 1467 1469 1471 1473 1475 1478 1480 1483 1485 1488 1491 1493 1496 1498 1500 1502 1503 1505 1507 1508 1510 1512 1513 1515 1516 1518 1519 1520 1522 1523 1524 1526 1527 1529 1530 1531 1533 1534 1536 1537 1538 1539 1540 1540 1541
1447 1454 1458 1458 1455 1453 1450 1448 1449 1447 1447 1449 1451 1456 1459 1459 1460 1466 1474 1478 1481 1488 1490 1487 1488 1480 1468 1467 1468 1465 1464 1461 1461 1461 1460 1460 1458 1459 1460 1461 1464 1466 1467 1470 1472 1474 1478 1479 1482 1484 1486 1489 1492 1494 1496 1498 1500 1501 1503 1505 1506 1508 1510 1512 1514 1515 1517 1518 1519 1520 1522 1523 1525 1526 1527 1529 1530 1532 1533 1535 1536 1538 1538 1539 1540 1541
1446 1455 1460 1459 1456 1451 1447 1447 1448 1447 1447 1449 1454 1459 1459 1458 1458 1460 1465 1469 1475 1486 1485 1483 1488 1480 1466 1467 1467 1464 1463 1460 1460 1460 1460 1460 1460 1459 1460 1461 1462 1464 1466 1469 1471 1473 1477 1479 1481 1483 1485 1488 1490 1492 1495 1496 1498 1500 1501 1503 1504 1506 1508 1510 1512 1514 1515 1517 1518 1519 1520 1521 1523 1524 1525 1527 1528 1530 1532 1534 1535 1536 1537 1538 1538 1539
1447 1458 1462 1465 1468 1465 1459 1457 1454 1450 1450 1452 1458 1462 1459 1459 1460 1461 1465 1466 1471 1483 1482 1479 1486 1479 1466 1468 1467 1464 1464 1462 1461 1462 1460 1460 1460 1460 1461 1461 1462 1464 1465 1467 1470 1472 1475 1477 1479 1481 1483 1486 1488 1490 1493 1494 1497 1498 1500 1502 1503 1504 1507 1508 1510 1512 1513 1515 1516 1518 1519 1520 1521 1522 1523 1525 1526 1528 1530 1532 1533 1535 1536 1536 1537 1538
1446 1457 1459 1464 1474 1477 1473 1469 1464 1457 1456 1457 1461 1462 1461 1460 1458 1459 1464 1464 1470 1484 1483 1477 1479 1473 1465 1470 1470 1468 1469 1467 1465 1464 1461 1461 1461 1460 1461 1462 1463 1464 1465 1467 1469 1470 1473 1475 1477 1480 1482 1484 1487 1489 1491 1493 1495 1497 1499 1501 1502 1504 1506 1507 1509 1510 1511 1513 1515 1516 1517 1518 1519 1520 1521 1523 1525 1527 1529 1530 1531 1533 1534 1535 1535 1536
1448 1458 1459 1458 1462 1465 1464 1464 1464 1460 1458 1461 1462 1463 1465 1466 1461 1458 1462 1464 1470 1481 1481 1474 1473 1471 1471 1478 1477 1475 1475 1473 1470 1467 1463 1462 1461 1460 1461 1462 1463 1465 1466 1468 1469 1471 1473 1475 1477 1479 1481 1484 1486 1488 1490 1492 1494 1496 1497 1499 1501 1503 1504 1506 1507 1508 1510 1511 1512 1514 1515 1516 1517 1519 1520 1521 1523 1525 1526 1528 1529 1530 1531 1533 1533 1534
1446 1456 1462 1461 1460 1462 1463 1463 1464 1462 1463 1468 1469 1467 1467 1467 1461 1456 1461 1466 1469 1475 1478 1476 1476 1477 1482 1486 1483 1479 1479 1476 1473 1470 1467 1465 1462 1460 1462 1463 1464 1465 1466 1467 1468 1470 1472 1473 1475 1478 1479 1482 1484 1486 1488 1490 1491 1493 1495 1497 1499 1501 1503 1504 1506 1507 1508 1509 1510 1511 1513 1514 1515 1517 1518 1519 1521 1522 1524 1525 1526 1528 1529 1530 1530 1531
1445 1454 1461 1462 1462 1464 1466 1466 1465 1464 1470 1476 1477 1475 1472 1468 1462 1461 1470 1477 1472 1469 1473 1478 1482 1486 1489 1488 1485 1482 1481 1478 1477 1474 1471 1468 1465 1463 1463 1464 1465 1466 1467 1467 1468 1469 1471 1472 1474 1476 1478 1481 1483 1484 1486 1488 1489 1491 1493 1495 1497 1499 1501 1502 1504 1505 1506 1507 1507 1509 1510 1512 1513 1514 1516 1517 1518 1519 1520 1522 1523 1525 1525 1526 1527 1528
1446 1456 1461 1459 1459 1463 1465 1467 1467 1466 1471 1477 1480 1482 1480 1477 1475 1475 1481 1484 1477 1475 1480 1483 1486 1490 1490 1488 1486 1484 1483 1481 1479 1476 1472 1470 1469 1467 1466 1466 1467 1469 1470 1470 1471 1472 1472 1473 1475 1476 1478 1480 1482 1484 1485 1486 1488 1489 1491 1493 1495 1496 1498 1500 1502 1503 1504 1504 1505 1507 1508 1510 1510 1512 1513 1513 1515 1516 1517 1519 1520 1521 1522 1523 1524 1525
1444 1458 1464 1458 1459 1466 1466 1468 1470 1470 1471 1475 1480 1484 1483 1481 1482 1482 1484 1484 1481 1483 1487 1484 1485 1489 1489 1487 1487 1485 1484 1481 1478 1477 1475 1475 1474 1472 1470 1470 1470 1470 1471 1472 1473 1474 1474 1475 1476 1477 1479 1480 1482 1483 1483 1484 1486 1487 1489 1491 1492 1493 1495 1497 1499 1500 1501 1502 1503 1505 1506 1507 1507 1509 1509 1510 1511 1512 1514 1515 1516 1517 1518 1519 1520 1522
1445 1458 1464 1459 1462 1468 1468 1470 1474 1471 1468 1470 1477 1484 1485 1483 1482 1483 1486 1487 1485 1487 1487 1483 1485 1490 1490 1488 1487 1486 1484 1482 1481 1481 1480 1479 1478 1476 1475 1474 1474 1474 1474 1474 1474 1474 1475 1476 1477 1477 1479 1481 1481 1481 1482 1482 1483 1485 1486 1488 1490 1491 1493 1494 1496 1497 1498 1499 1501 1502 1503 1503 1504 1505 1506 1507 1508 1509 1510 1512 1513 1513 1514 1515 1516 1518
1451 1455 1460 1461 1465 1472 1474 1477 1479 1474 1470 1473 1480 1487 1488 1486 1486 1487 1487 1488 1488 1489 1489 1487 1488 1491 1490 1488 1488 1487 1486 1485 1485 1485 1484 1483 1482 1480 1479 1479 1478 1478 1478 1477 1477 1476 1476 1476 1477 1477 1478 1479 1480 1480 1481 1482 1483 1483 1485 1486 1487 1489 1490 1491 1492 1493 1495 1496 1497 1498 1499 1500 1501 1502 1503 1504 1505 1506 1507 1508 1508 1509 1510 1511 1512 1514
1453 1454 1460 1463 1467 1476 1479 1480 1484 1486 1483 1484 1486 1486 1487 1488 1488 1489 1490 1490 1489 1489 1489 1490 1491 1490 1489 1488 1489 1489 1488 1488 1489 1488 1487 1486 1485 1483 1483 1482 1482 1481 1480 1480 1480 1479 1478 1478 1477 1478 1478 1479 1479 1479 1479 1480 1481 1482 1483 1485 1486 1487 1487 1488 1489 1490 1491 1492 1493 1494 1495 1497 1497 1498 1499 1500 1501 1502 1503 1503 1503 1504 1505 1507 1508 1509
1454 1457 1463 1465 1468 1477 1481 1486 1497 1499 1490 1487 1487 1485 1485 1488 1489 1489 1491 1492 1491 1490 1490 1491 1491 1490 1489 1489 1489 1489 1490 1490 1490 1489 1488 1488 1487 1486 1485 1485 1484 1484 1483 1482 1481 1481 1480 1479 1478 1478 1478 1478 1478 1478 1478 1478 1479 1479 1480 1482 1483 1484 1485 1486 1487 1488 1488 1489 1490 1491 1492 1493 1494 1494 1495 1496 1497 1498 1498 1498 1499 1500 1501 1502 1503 1504
1453 1456 1463 1468 1473 1479 1483 1491 1500 1498 1490 1489 1489 1486 1486 1489 1490 1489 1491 1493 1493 1492 1492 1491 1491 1490 1489 1489 1489 1489 1489 1490 1489 1489 1490 1490 1489 1488 1488 1487 1487 1486 1485 1485 1484 1483 1482 1481 1479 1478 1478 1478 1479 1478 1477 1477 1477 1478 1478 1479 1480 1481 1482 1483 1484 1484 1485 1486 1487 1488 1489 1490 1491 1491 1492 1492 1493 1493 1493 1494 1494 1495 1497 1498 1499 1500
1453 1454 1459 1468 1477 1481 1485 1491 1495 1494 1493 1491 1488 1487 1487 1489 1489 1489 1491 1495 1494 1492 1492 1492 1491 1490 1489 1488 1488 1488 1488 1489 1489 1491 1492 1492 1491 1491 1490 1490 1489 1488 1488 1487 1487 1486 1484 1483 1482 1481 1480 1479 1478 1477 1476 1476 1476 1476 1476 1477 1478 1479 1480 1480 1480 1481 1482 1483 1484 1485 1486 1487 1488 1488 1488 1489 1489 1489 1489 1490 1490 1491 1493 1494 1495 1495
1455 1455 1454 1462 1476 1483 1485 1493 1500 1498 1493 1487 1486 1488 1488 1487 1489 1488 1490 1494 1494 1492 1492 1492 1490 1489 1488 1487 1487 1487 1488 1490 1493 1495 1495 1494 1493 1492 1491 1491 1490 1489 1489 1489 1488 1487 1486 1484 1483 1483 1481 1479 1477 1477 1476 1476 1475 1474 1474 1474 1475 1477 1478 1478 1479 1480 1481 1481 1482 1483 1484 1484 1485 1484 1485 1485 1485 1485 1485 1486 1487 1489 1490 1491 1491 1492
1456 1459 1457 1460 1474 1480 1478 1485 1496 1493 1485 1484 1487 1488 1488 1487 1488 1487 1488 1491 1492 1491 1492 1491 1490 1490 1488 1487 1487 1486 1488 1493 1497 1497 1496 1494 1493 1492 1491 1490 1489 1489 1489 1489 1489 1488 1487 1485 1484 1483 1482 1479 1478 1477 1476 1475 1474 1473 1473 1473 1474 1474 1475 1476 1477 1478 1478 1478 1479 1481 1482 1482 1481 1481 1481 1481 1481 1481 1482 1484 1485 1486 1488 1489 1490 1491
1459 1462 1463 1462 1469 1475 1473 1478 1487 1486 1483 1487 1488 1487 1487 1486 1486 1489 1490 1490 1490 1491 1491 1491 1491 1490 1489 1488 1487 1487 1490 1494 1496 1496 1495 1495 1493 1492 1491 1490 1489 1489 1489 1489 1489 1490 1488 1487 1485 1483 1482 1480 1478 1477 1476 1476 1475 1474 1474 1474 1474 1474 1475 1475 1474 1474 1474 1474 1475 1477 1477 1478 1477 1477 1477 1477 1478 1478 1479 1480 1480 1481 1483 1485 1487 1488
1468 1470 1473 1470 1471 1474 1474 1476 1483 1485 1486 1488 1487 1486 1487 1486 1487 1490 1490 1488 1489 1491 1491 1491 1491 1490 1490 1489 1488 1490 1493 1496 1495 1495 1495 1494 1493 1492 1492 1491 1490 1490 1489 1489 1490 1490 1489 1488 1486 1484 1483 1481 1479 1478 1477 1477 1476 1475 1475 1475 1475 1475 1475 1475 1474 1473 1473 1473 1472 1473 1473 1473 1473 1473 1473 1473 1474 1475 1474 1474 1474 1475 1475 1476 1477 1479
1472 1475 1478 1477 1477 1479 1479 1479 1483 1486 1488 1488 1487 1485 1486 1486 1487 1487 1486 1487 1490 1490 1491 1492 1491 1491 1491 1491 1491 1493 1495 1496 1495 1495 1494 1494 1493 1493 1493 1492 1492 1491 1491 1490 1490 1490 1489 1488 1486 1484 1483 1482 1480 1479 1478 1479 1479 1478 1477 1476 1476 1475 1475 1474 1474 1473 1473 1472 1471 1471 1470 1469 1469 1468 1468 1469 1470 1470 1469 1469 1469 1471 1472 1473 1473 1473
1471 1472 1476 1480 1483 1484 1482 1480 1481 1483 1487 1488 1486 1485 1486 1486 1485 1485 1485 1488 1489 1490 1491 1492 1491 1492 1492 1492 1492 1494 1494 1495 1495 1495 1494 1494 1494 1493 1493 1493 1492 1492 1492 1491 1491 1490 1489 1488 1486 1484 1483 1482 1481 1480 1480 1480 1480 1480 1479 1478 1477 1476 1475 1474 1473 1473 1472 1471 1471 1469 1468 1466 1465 1465 1465 1466 1466 1466 1466 1466 1466 1468 1470 1471 1471 1470
1476 1474 1477 1482 1484 1481 1478 1480 1484 1485 1488 1488 1486 1486 1488 1487 1486 1487 1487 1488 1489 1490 1491 1491 1491 1492 1492 1492 1493 1494 1494 1495 1495 1495 1495 1495 1495 1494 1494 1494 1493 1493 1493 1492 1491 1491 1490 1488 1487 1485 1484 1483 1482 1482 1482 1482 1481 1481 1480 1479 1478 1477 1476 1474 1473 1472 1471 1471 1470 1468 1467 1466 1464 1464 1463 1464 1463 1463 1463 1463 1464 1465 1466 1466 1466 1466
1478 1477 1476 1480 1486 1485 1483 1486 1489 1489 1489 1489 1487 1488 1489 1488 1489 1490 1490 1490 1491 1492 1491 1491 1492 1492 1492 1493 1493 1494 1495 1496 1496 1496 1496 1496 1496 1496 1495 1495 1495 1494 1494 1493 1492 1492 1491 1490 1489 1487 1486 1485 1484 1484 1484 1483 1482 1481 1480 1479 1479 1477 1476 1475 1474 1472 1471 1470 1469 1468 1467 1465 1464 1463 1463 1462 1462 1461 1461 1461 1461 1462 1463 1463 1463 1463
1479 1478 1477 1481 1486 1487 1487 1489 1490 1489 1490 1490 1489 1490 1491 1491 1491 1492 1492 1494 1495 1495 1494 1493 1492 1493 1494 1494 1494 1494 1496 1497 1497 1497 1498 1497 1498 1498 1497 1496 1496 1495 1494 1494 1493 1492 1492 1491 1490 1489 1488 1487 1486 1486 1485 1484 1483 1482 1481 1480 1479 1477 1476 1475 1473 1472 1471 1470 1468 1467 1466 1465 1464 1463 1462 1462 1461 1460 1460 1460 1460 1459 1459 1459 1459 1458
1478 1476 1478 1482 1484 1486 1489 1492 1491 1490 1491 1491 1490 1492 1493 1494 1495 1494 1494 1496 1497 1497 1496 1494 1494 1494 1495 1495 1495 1496 1498 1498 1498 1498 1499 1498 1498 1498 1498 1498 1497 1496 1496 1495 1494 1493 1492 1491 1490 1489 1488 1488 1487 1486 1486 1485 1484 1483 1482 1480 1479 1477 1476 1474 1473 1472 1471 1469 1468 1467 1465 1464 1463 1462 1461 1460 1460 1459 1459 1459 1458 1458 1457 1456 1455 1455
1479 1478 1481 1485 1488 1489 1491 1492 1491 1491 1492 1492 1493 1494 1495 1497 1498 1497 1496 1497 1498 1498 1498 1497 1496 1496 1496 1497 1498 1498 1498 1499 1500 1499 1500 1500 1500 1499 1499 1499 1498 1497 1497 1496 1495 1494 1492 1491 1490 1489 1489 1488 1487 1486 1486 1485 1484 1483 1482 1480 1479 1477 1476 1475 1473 1472 1470 1469 1468 1466 1465 1464 1463 1461 1460 1459 1458 1458 1457 1456 1456 1455 1454 1453 1453 1452
1481 1480 1482 1487 1490 1492 1493 1493 1492 1492 1494 1495 1495 1496 1496 1498 1500 1500 1499 1499 1501 1501 1501 1500 1499 1499 1499 1500 1500 1499 1500 1501 1501 1501 1501 1501 1501 1500 1500 1500 1499 1498 1497 1497 1496 1494 1493 1492 1491 1490 1489 1488 1487 1486 1485 1484 1483 1482 1481 1480 1478 1477 1476 1474 1473 1472 1470 1469 1468 1466 1465 1464 1462 1461 1460 1458 1457 1456 1455 1454 1454 1453 1452 1451 1451 1450
1483 1485 1485 1486 1489 1492 1493 1494 1493 1493 1495 1498 1497 1496 1498 1499 1500 1502 1502 1502 1503 1503 1503 1501 1501 1501 1501 1502 1502 1501 1501 1502 1502 1502 1502 1502 1502 1502 1501 1500 1500 1499 1498 1497 1496 1495 1494 1492 1491 1490 1489 1488 1487 1486 1485 1484 1483 1481 1480 1479 1477 1476 1475 1473 1472 1471 1469 1468 1467 1466 1465 1463 1462 1460 1459 1457 1456 1455 1454 1453 1452 1451 1450 1450 1449 1449
1484 1486 1486 1486 1489 1491 1492 1493 1493 1493 1495 1498 1497 1497 1499 1500 1501 1502 1504 1504 1504 1505 1504 1503 1503 1503 1503 1503 1503 1503 1502 1503 1503 1503 1502 1502 1503 1502 1501 1501 1500 1499 1498 1497 1496 1494 1493 1492 1491 1490 1489 1488 1487 1486 1485 1483 1482 1480 1479 1477 1476 1475 1473 1472 1471 1469 1468 1467 1466 1464 1463 1462 1461 1459 1458 1456 1455 1454 1452 1451 1450 1449 1449 1448 1448 1447